Regional Weather Roundup
Issued by NWS

Home | Current Version | Previous Version | Text Only | Print | Product List | Glossary On
Versions: 1 2 3 4 5 6 7 8 9 10 11 12 13 14 15 16 17 18 19 20 21 22 23 24 25 26 27 28 29 30 31 32 33 34 35 36 37 38 39 40 41 42 43 44 45 46 47 48 49 50
000
ASUS43 KLSX 221159
RWRMO

WEATHER SUMMARY FOR MISSOURI
NATIONAL WEATHER SERVICE SPRINGFIELD MO
600 AM CST SAT NOV 22 2014

NOTE: "FAIR" INDICATES FEW OR NO CLOUDS BELOW 12,000 FEET WITH NO
       SIGNIFICANT WEATHER AND/OR OBSTRUCTIONS TO VISIBILITY.
       CURRENT SKY AND/OR WEATHER CONDITIONS ARE NOT AVAILABLE FOR
       CHILLICOTHE AND FARMINGTON.

MOZ001>031-035>038-043-044-053-054-221300-
...NORTHERN AND WESTERN MISSOURI...

CITY           SKY/WX    TMP DP  RH WIND       PRES   REMARKS
KANSAS CTY INT LGT RAIN  52  51  97 SW12      29.97F VSB 1/2
6HR MIN TEMP:  50; 6HR MAX TEMP:  52; 6HR PCP:  0.05;

KANSAS C DTWN  CLOUDY    52  51  97 SW5       29.97F FOG
6HR MIN TEMP:  50; 6HR MAX TEMP:  53; 6HR PCP: TRACE;

ST JOSEPH      CLOUDY    43  42  97 SW6       29.97F FOG
6HR MIN TEMP:  40; 6HR MAX TEMP:  44;

CHILLICOTHE      N/A     50  48  93 S8        29.98F
6HR MIN TEMP:  45; 6HR MAX TEMP:  50; 6HR PCP:  0.01;

KIRKSVILLE     CLOUDY    49  47  93 S12       29.98F
6HR MIN TEMP:  39; 6HR MAX TEMP:  49;


$$
MOZ066>068-077>081-088>096-101>105-221300-
...SOUTHWEST MISSOURI...

CITY           SKY/WX    TMP DP  RH WIND       PRES   REMARKS
SPRINGFIELD    CLOUDY    49  44  83 S13       30.07F
6HR MIN TEMP:  46; 6HR MAX TEMP:  49;

JOPLIN         CLOUDY    56  49  77 S17G26    30.04F
6HR MIN TEMP:  55; 6HR MAX TEMP:  57; 6HR PCP: TRACE;


$$
MOZ032>034-039>042-045>050-055>058-069>072-221300-
...CENTRAL MISSOURI...

CITY           SKY/WX    TMP DP  RH WIND       PRES   REMARKS
COLUMBIA       CLOUDY    51  45  79 S14G21    30.06F
6HR MIN TEMP:  46; 6HR MAX TEMP:  51; 6HR PCP: TRACE;

JEFFERSON CITY CLOUDY    52  44  74 S6        30.07F
6HR MIN TEMP:  47; 6HR MAX TEMP:  52;

ROLLA          CLOUDY    49  43  80 S15       30.08F
6HR MIN TEMP:  43; 6HR MAX TEMP:  49;

SEDALIA        CLOUDY    53  46  77 S15       30.03F
6HR MIN TEMP:  49; 6HR MAX TEMP:  53; 6HR PCP: TRACE;

WARRENSBURG    CLOUDY    52  46  82 S8        30.00F
OSAGE BEACH    MOCLDY    48  43  81 S5        30.08F

$$
MOZ051-052-059>065-221300-
...EAST CENTRAL MISSOURI...

CITY           SKY/WX    TMP DP  RH WIND       PRES   REMARKS
ST LOUIS INTL  MOCLDY    46  38  73 S5        30.12F
6HR MIN TEMP:  43; 6HR MAX TEMP:  46;

SPIRIT OF STL  CLOUDY    42  39  89 CALM      30.11F
6HR MIN TEMP:  37; 6HR MAX TEMP:  44;

ST CHARLES     CLOUDY    39  36  89 E5        30.11F
6HR MIN TEMP:  37; 6HR MAX TEMP:  41;


$$
MOZ072>076-082>087-097>100-106>115-221300-
...SOUTH CENTRAL AND SOUTHEAST MISSOURI...

CITY           SKY/WX    TMP DP  RH WIND       PRES   REMARKS
CAPE GIRARDEAU CLOUDY    49  43  80 S6        30.23R
6HR MIN TEMP:  44; 6HR MAX TEMP:  49; 6HR PCP: TRACE;

FARMINGTON     CLOUDY    48  43  81 SE13      30.18S
6HR MIN TEMP:  39; 6HR MAX TEMP:  48;

POPLAR BLUFF   CLOUDY    42  38  85 CALM      30.21S
6HR MIN TEMP:  37; 6HR MAX TEMP:  42;

WEST PLAINS    MOCLDY    43  40  89 S6        30.16S
6HR MIN TEMP:  40; 6HR MAX TEMP:  45;


$$


USA.gov is the U.S. government's official web portal to all federal, state and local government web resources and services.